Location: Newark
(54.3386°S, 169.8415°W)
Time: 11:29:12
(UTC+00:00)

Transit 2A Rocket - Pass Details

Date: 31 October 2019
Orbit: 594 x 909 km, 66.7° (Epoch: 20 November)

Event Time Altitude Azimuth Distance (km) Brightness Sun altitude
Rises 11:58:49 0° 231° (SW) 3,570 8.8 -20.5°
Reaches altitude 10° 12:03:14 10° 260° (W) 2,617 7.7 -20.4°
Maximum altitude 12:05:16 12° 280° (W) 2,477 7.4 -20.3°
Enters shadow 12:05:37 12° 283° (WNW) 2,478 7.3 -20.3°
Drops below altitude 10° 12:07:16 10° 299° (WNW) 2,586 - -20.2°
Sets 12:11:35 0° 329° (NNW) 3,470 - -20.0°
